Location: Newark
(45.4422°N, 16.2769°E)
Time: 11:26:25
(UTC+00:00)

Vanguard 2 - Pass Details

Date: 12 December 2019
Orbit: 553 x 2938 km, 32.9° (Epoch: 19 January)

Event Time Altitude Azimuth Distance (km) Brightness Sun altitude
Rises 06:31:02 0° 276° (W) 6,792 11.8 0.0°
Reaches altitude 10° 06:37:18 10° 264° (W) 5,670 11.5 0.9°
Maximum altitude 06:48:06 21° 224° (SW) 4,329 11.3 2.5°
Drops below altitude 10° 06:57:00 10° 182° (S) 4,548 12.1 3.7°
Sets 07:01:19 0° 166° (SSE) 5,152 12.7 4.3°
